User: anonymous   Login
Location: Unspecified
(0.0000°N, 0.0000°E)
Time: 11:02:47
(UTC+00:00)
Language:

Amsat-Oscar-6 - Orbit

View from above orbital plane
View from above orbital plane
View from above satellite
View from above satellite

Ground track
Ground track

The orbit data is extracted from the following two-line orbital elements,

1 06236U 72082B   17351.86700354 -.00000051  00000-0 -36241-4 0  9994
2 06236 101.7401 314.6749 0004145 329.3769  57.8265 12.53140699 66410
Epoch (UTC): 17 December 2017 20:48:29
Eccentricity: 0.0004145
inclination: 101.7401°
perigee height: 1448 km
apogee height: 1454 km
right ascension of ascending node: 314.6749°
argument of perigee: 329.3769°
revolutions per day: 12.53140699
mean anomaly at epoch: 57.8265°
orbit number at epoch: 6641

The dashed part of the orbit path shows where the satellite is in the earth's shadow,  

DLR